Weather History for Tuscaloosa, AL

Change the Weather History Date:

Thursday, June 13, 2013

  Actual Average Record
Temperature  
Mean Temperature 84 °F 78 °F  
Max Temperature 94 °F 89 °F 101 °F (1952)
Min Temperature 73 °F 67 °F 50 °F (1985)
Cooling Degree Days 18    
Growing Degree Days 33 (Base 50)    
Moisture  
Dew Point 74 °F    
Average Humidity 76    
Maximum Humidity 100    
Minimum Humidity 52    
Precipitation  
Precipitation T in 0.14 in 3.07 in (1987)
Month to date precipitation 4.25 1.95  
Year to date precipitation 26.21 25.35  
Sea Level Pressure  
Sea Level Pressure 29.92 in    
Wind  
Wind Speed 7 mph (West)    
Max Wind Speed 18 mph    
Max Gust Speed 23 mph    
Visibility 8 miles    
Events Thunderstorm    
T = Trace of Precipitation, MM = Missing Value Source: NWS Daily Summary

Daily Weather History Graph

Daily Weather History Graph

Search for Another Location

Airport:

Trip Planner

Search our weather history database for the weather conditions in past years. The results will help you decide how hot, cold, wet, or windy it might be!

Date:

Astronomy

Jun. 13, 2013 Rise Set
Actual Time 5:40 AM CDT 8:00 PM CDT
Civil Twilight 5:11 AM CDT 8:29 PM CDT
Nautical Twilight 4:36 AM CDT 9:04 PM CDT
Astronomical Twilight 3:58 AM CDT 9:43 PM CDT
Moon 10:05 AM CDT (6/13) 11:20 PM CDT (6/13)
Length of Visible Light 15h 17m
Length of Day
14h 19m
Waxing Crescent, 22% of the Moon is Illuminated
Jun 13
Waxing Crescent
Jun 16
First Quarter
Jun 23
Full
Jun 29
Last Quarter
Jul 8
New

Hourly Weather History & Observations

Time (CDT) Temp. Heat Index Dew Point Humidity Pressure Visibility Wind Dir Wind Speed Gust Speed Precip Events Conditions
12:53 AM 77.0 °F - 73.9 °F 90% 29.99 in 8.0 mi Calm Calm - N/A   Clear
1:53 AM 75.9 °F - 73.9 °F 94% 29.98 in 6.0 mi Calm Calm - N/A   Clear
2:53 AM 75.0 °F - 73.0 °F 94% 29.98 in 8.0 mi Calm Calm - N/A   Clear
3:47 AM 73.4 °F - 73.4 °F 100% 29.98 in 1.8 mi Calm Calm - N/A   Clear
3:53 AM 73.9 °F - 73.0 °F 97% 29.97 in 1.8 mi Calm Calm - N/A   Clear
4:04 AM 73.4 °F - 71.6 °F 94% 29.98 in 3.0 mi Calm Calm - N/A   Clear
4:53 AM 73.9 °F - 72.0 °F 93% 29.98 in 6.0 mi Calm Calm - N/A   Clear
5:53 AM 73.0 °F - 71.1 °F 93% 29.99 in 5.0 mi South 3.5 mph - N/A   Clear
6:53 AM 75.9 °F - 73.0 °F 91% 30.00 in 5.0 mi Calm Calm - N/A   Clear
7:53 AM 81.0 °F 86.2 °F 73.9 °F 79% 30.01 in 8.0 mi WSW 5.8 mph - N/A   Clear
8:53 AM 84.0 °F 91.2 °F 73.9 °F 72% 30.01 in 9.0 mi WSW 9.2 mph - N/A   Clear
9:53 AM 87.1 °F 94.5 °F 73.0 °F 63% 29.99 in 10.0 mi West 11.5 mph - N/A   Clear
10:53 AM 90.0 °F 100.2 °F 75.0 °F 61% 29.98 in 10.0 mi WSW 13.8 mph 18.4 mph N/A   Clear
11:53 AM 91.0 °F 100.4 °F 73.9 °F 57% 29.96 in 10.0 mi West 5.8 mph - N/A   Partly Cloudy
12:53 PM 91.9 °F 103.2 °F 75.0 °F 58% 29.94 in 10.0 mi WSW 13.8 mph - N/A   Scattered Clouds
1:53 PM 93.0 °F 103.2 °F 73.9 °F 54% 29.91 in 10.0 mi West 12.7 mph - N/A   Partly Cloudy
2:53 PM 93.0 °F 103.2 °F 73.9 °F 54% 29.89 in 10.0 mi WSW 11.5 mph - N/A   Partly Cloudy
3:53 PM 93.0 °F 104.6 °F 75.0 °F 56% 29.87 in 10.0 mi WSW 12.7 mph - N/A   Clear
4:53 PM 91.9 °F 103.2 °F 75.0 °F 58% 29.85 in 10.0 mi West 12.7 mph - N/A   Scattered Clouds
5:53 PM 91.0 °F 102.9 °F 75.9 °F 61% 29.83 in 10.0 mi West 9.2 mph - N/A   Clear
6:53 PM 89.1 °F 100.2 °F 75.9 °F 65% 29.81 in 9.0 mi WSW 9.2 mph - N/A   Clear
7:53 PM 87.1 °F 97.3 °F 75.9 °F 69% 29.80 in 9.0 mi Calm Calm - N/A   Partly Cloudy
8:30 PM 86.0 °F 95.1 °F 75.2 °F 70% 29.82 in 10.0 mi WSW 5.8 mph - N/A Thunderstorm Mostly Cloudy
8:51 PM 84.2 °F 92.3 °F 75.2 °F 74% 29.84 in 9.0 mi NW 4.6 mph - 0.00 in   Mostly Cloudy
8:53 PM 84.9 °F 94.1 °F 75.9 °F 74% 29.83 in 9.0 mi NW 5.8 mph - 0.00 in   Mostly Cloudy
9:53 PM 84.9 °F 93.3 °F 75.0 °F 72% 29.87 in 10.0 mi NNW 10.4 mph - N/A   Overcast
10:53 PM 82.0 °F 86.7 °F 72.0 °F 71% 29.88 in 10.0 mi NNE 13.8 mph - N/A   Clear
11:53 PM 79.0 °F - 69.1 °F 72% 29.91 in 10.0 mi NNE 6.9 mph - N/A   Clear